Hourly Data Report for October 26, 2015

All times are specified in Local Standard Time (LST). Add 1 hour to adjust for Daylight Saving Time where and when it is observed.

CAPE DORSET A
NUNAVUT

64°13'49.000" N
76°31'30.000" W
48.20 m
2400637
71366
YTE

Download Data

Hourly Data (October 2015)
Hourly Data Report for October 26, 2015
Temp Definition
°C
Dew Point Temp Definition
°C
Rel Hum Definition
%
Wind Dir Definition
10's deg

Wind Spd Definition
km/h
Visibility Definition
km
Stn Press Definition
kPa
Hmdx Definition


Wind Chill Definition


Weather Definition


TIME
00:00 Legend Double Dagger -11.9 -13.1 91 28 8 2.0 98.70   -17 Snow
01:00 Legend Double Dagger -12.0 -13.1 92 26 8 2.0 98.68   -17 Snow
02:00 Legend Double Dagger -12.3 -13.8 89   0 16.1 98.65     LegendNANA
03:00 Legend Double Dagger -10.7 -14.6 73 27 26 8.1 98.59   -20 Snow
04:00 Legend Double Dagger -10.8 -14.0 78 27 30 12.9 98.58   -21 Snow
05:00 Legend Double Dagger -11.5 -14.3 80 25 30 2.8 98.56   -21 Snow
06:00 Legend Double Dagger -11.6 -14.2 81 26 30 2.8 98.52   -22 Snow
07:00 Legend Double Dagger -11.6 -13.3 87 27 30 3.2 98.49   -22 Snow
08:00 Legend Double Dagger -10.9 -16.1 66 24 26 16.1 98.45   -20 LegendNANA
09:00 Legend Double Dagger -11.2 -16.0 68 22 22 16.1 98.43   -20 LegendNANA
10:00 Legend Double Dagger -11.2 -17.1 62 20 22 16.1 98.38   -20 LegendNANA
11:00 Legend Double Dagger -10.8 -14.0 78 27 26 9.7 98.35   -20 Haze
12:00 Legend Double Dagger -12.3 -14.0 87 27 13 16.1 98.37   -19 LegendNANA
13:00 Legend Double Dagger -12.8 -15.4 81 29 11 16.1 98.40   -19 LegendNANA
14:00 Legend Double Dagger -12.3 -15.0 80 21 8 16.1 98.41   -17 LegendNANA
15:00 Legend Double Dagger -11.8 -15.5 74 36 8 16.1 98.44   -17 LegendNANA
16:00 Legend Double Dagger -12.4 -15.0 81 35 11 4.8 98.48   -18 Snow
17:00 Legend Double Dagger -12.8 -14.4 88 4 8 16.1 98.53   -18 LegendNANA
18:00 Legend Double Dagger -13.6 -15.0 89 35 13 16.1 98.56   -21 LegendNANA
19:00 Legend Double Dagger -14.1 -16.5 82 30 11 16.1 98.63   -21 LegendNANA
20:00 Legend Double Dagger -14.6 -17.2 81 28 11 16.1 98.67   -21 LegendNANA
21:00 Legend Double Dagger -13.1 -16.6 75 31 15 16.1 98.72   -21 LegendNANA
22:00 Legend Double Dagger -14.1 -17.3 77 28 18 16.1 98.75   -23 LegendNANA
23:00 Legend Double Dagger -14.4 -16.5 84 28 17 16.1 98.77   -23 LegendNANA

Notes on Data Quality.

Legend

  • E = Estimated
  • M = Missing
  • NA = Not Available
  • ‡ = Partner data that is not subject to review by the National Climate Archives
Date modified: